Home > Time Zones > World Clock > Weather > China > Sian > Past weeks

Flag for China Weather past 2 weeks in Sian, China

Now
63 °F

Fog.


Feels Like: 63 °F
Forecast: 51 / 74 °F
Wind: 1 mph from Northeast

Location: Xian/Xianyang


UV Index: 0 (Low)

Visibility: 2 mi


Pressure: 29.92 "Hg

Humidity: 73%

Dew point: 54 °F

Location of SianLocation

Historic Weather in Sian

°F

Sian temperature yesterday

Maximum temperature yesterday: 59 °F (at 5:00 PM)
Minimum temperature yesterday: 48 °F (at 11:00 PM)
Average temperature yesterday: 55 °F

Past Weeks' High & Low Weather Summary

 TemperatureHumidityPressure
High82 °F (Apr 9, 3:00 PM)100% (Apr 11, 1:00 AM)30.27 "Hg (Apr 11, 1:00 AM)
Low45 °F (Apr 4, 4:00 AM)26% (Apr 8, 5:00 PM)29.74 "Hg (Apr 9, 4:00 PM)
Average59 °F72%29.99 "Hg
* Reported Apr 2 11:00 AM — Apr 17 11:00 AM, Sian, Weather by CustomWeather, © 2014

Note: Actual official high and low records may vary slightly from our data, if they occured in-between our weather recording intervals... More about our weather records

Advertising

Historic Weather Conditions — Data for Previous 24 hours

 ConditionsComfort  
Time TempWeatherWind HumidityBarometerVisibility
11:00 AM
Apr 17
61 °FFog.1 mph77%29.92 "Hg1 mi
10:00 AM59 °FFog.3 mph82%29.92 "Hg1 mi
9:00 AM57 °FFog.No wind82%29.92 "Hg1 mi
8:00 AM54 °FFog.No wind94%29.92 "Hg1 mi
7:00 AM52 °FFog.No wind100%29.89 "Hg1 mi
6:00 AM54 °FFog.1 mph94%29.89 "Hg1 mi
5:00 AM54 °FFog.1 mph94%29.86 "Hg1 mi
4:00 AM54 °FFog.No wind94%29.86 "Hg1 mi
3:00 AM52 °FFog.1 mph100%29.89 "Hg1 mi
2:00 AM52 °FFog.1 mph94%29.92 "Hg1 mi
1:00 AM48 °FFog.1 mph94%29.92 "Hg1 mi
12:00 AM46 °FFog.1 mph100%29.92 "Hg1 mi
11:00 PM
Apr 16
48 °FFog.1 mph100%29.92 "Hg1 mi
10:00 PM50 °FFog.3 mph94%29.92 "Hg1 mi
9:00 PM52 °FFog.1 mph94%29.92 "Hg1 mi
8:00 PM55 °FFog.3 mph88%29.89 "Hg2 mi
7:00 PM57 °FFog.6 mph82%29.89 "Hg2 mi
6:00 PM59 °FFog.1 mph77%29.89 "Hg2 mi
5:00 PM59 °FFog.1 mph77%29.86 "Hg2 mi
4:00 PM57 °FFog.1 mph88%29.86 "Hg1 mi
3:00 PM55 °FFog.1 mph88%29.92 "Hg1 mi
2:00 PM55 °FLight rain. Fog.3 mph94%29.92 "Hg1 mi
1:00 PM54 °FLight rain. Fog.1 mph94%29.92 "Hg1 mi
12:00 PM55 °FFog.3 mph82%29.95 "Hg2 mi
Weather by CustomWeather, © 2014

See weather overview